Погода в Вавре

Бельгия     50°42′55″N   4°37′03″E
темп.,
°C
ветер,
м/с
пор.,
м/с
влажн.,
%
обл.,
%
осадки,
мм/ч
давл.,
гПа
погр.,
м
18 мая, вт
вт1823:00+8юз48955 0.9 1010179
02:00+7юз5119780 1.1 1011346
05:00+8юз6119799 0.4 1011332
08:00+8юз61097100 1.5 1013520
11:00+11зюз468584 0.3 1013720
14:00+13з4668100 2.3 10131343
17:00+14зсз5667100 1.7 10141302
20:00+11з368395 2.9 1015272
19 мая, ср
ср1923:00+8зюз3794100 0.5 1017147
02:00+6юз410959 0.5 1017228
05:00+6юз4119665 0.0 1017254
08:00+8юз51193100 0.0 1018458
11:00+8ю51096100 4.5 1017717
14:00+10з458894 5.4 1017667
17:00+12сз347880 0.4 1017985
20:00+11сз368767 1.4 1018383
20 мая, чт
чт2023:00+7зсз34945 0.2 102159
02:00+6з22933 0.2 102227
05:00+5юз34955 0.0 102360
08:00+8юз35915 0.0 1023197
11:00+13зюз457315 0.0 1024959
14:00+16зюз665337 0.1 10231901
17:00+16зюз6754100 0.0 10222049
20:00+13ююз4870100 0.0 1021420
21 мая, пт
пт2123:00+11ююз4975100 0.0 1020295
02:00+11ююз61370100 0.1 1017725
05:00+9ююз61495100 2.8 1015611
08:00+10ююз81693100 4.3 1012738
11:00+10ююз71593100 2.6 1010993
14:00+11ююз81389100 4.0 1009979
17:00+12юз71288100 0.4 1007812
20:00+13юз5107727 0.8 1005740
22 мая, сб
сб2223:00+10юз61491100 0.8 1005584
02:00+9юз917891 0.8 1004956
05:00+8юз101786100 0.0 10031178
08:00+9юз101780100 0.0 10041322
11:00+10юз101681100 0.4 10051408
14:00+12зюз10167413 1.4 10061703
17:00+14зюз9156236 0.3 10072030
20:00+11зюз8147626 0.8 10081304